This demonstration page uses our WeatherBlox Daily Observations layout. Learn more.

Left ArrowRight Arrow

Hourly Observations for December 5, 2022

Temp ( °F °C ) Dew Point ( °F °C ) Humidity (%) Winds ( mph kmh ) Pressure ( in mb ) Visibility ( mi km ) Precip ( " mm )
12:56 am 00:56 Clear 28 -2.2 16 -8.9 60 60 SSW 7 11 29.81 1009 10 16 0.00 0.00
1:56 am 01:56 Clear 32 0 17 -8.3 53 53 SSW 6 9 29.78 1008 10 16 0.00 0.00
2:56 am 02:56 Clear 30 -1.1 16 -8.9 55 55 WNW 5 7 29.78 1009 10 16 0.00 0.00
3:56 am 03:56 Mostly Clear 28 -2.2 16 -8.9 60 60 SSW 3 6 29.78 1009 10 16 0.00 0.00
4:56 am 04:56 Clear 27 -2.8 16 -8.9 63 63 NW 5 7 29.77 1008 10 16 0.00 0.00
5:56 am 05:56 Clear 28 -2.2 17 -8.3 63 63 NW 9 15 29.78 1008 10 16 0.00 0.00
6:56 am 06:56 Clear 33 0.6 20 -6.7 58 58 N 15 24 29.78 1009 10 16 0.00 0.00
7:56 am 07:56 Sunny 30 -1.1 21 -6.1 69 69 N 13 20 29.83 1010 10 16 0.00 0.00
8:56 am 08:56 Sunny 32 0 21 -6.1 63 63 N 16 26 29.85 1011 10 16 0.00 0.00
9:56 am 09:56 Sunny 35 1.7 20 -6.7 54 54 N 15 24 29.87 1011 10 16 0.00 0.00
10:56 am 10:56 Mostly Sunny 37 2.8 21 -6.1 52 52 N 18 30 29.89 1012 10 16 0.00 0.00
11:56 am 11:56 Mostly Sunny 35 1.7 21 -6.1 56 56 N 22 35 29.88 1012 10 16 0.00 0.00
12:56 pm 12:56 Sunny 37 2.8 21 -6.1 52 52 N 18 30 29.90 1012 10 16 0.00 0.00
1:56 pm 13:56 Partly Cloudy 37 2.8 20 -6.7 50 50 N 17 28 29.88 1012 10 16 0.00 0.00
2:56 pm 14:56 Sunny 35 1.7 19 -7.2 52 52 N 20 31 29.90 1013 10 16 0.00 0.00
3:56 pm 15:56 Partly Cloudy 32 0 20 -6.7 61 61 N 18 30 29.94 1014 10 16 0.00 0.00
4:56 pm 16:56 Mostly Sunny 31 -0.6 20 -6.7 63 63 NNE 14 22 29.95 1014 10 16 0.00 0.00
5:56 pm 17:56 Mostly Cloudy 30 -1.1 19 -7.2 63 63 N 15 24 29.98 1015 10 16 0.00 0.00
6:56 pm 18:56 Mostly Cloudy 29 -1.7 18 -7.8 63 63 NNE 9 15 29.98 1015 10 16 0.00 0.00
7:56 pm 19:56 Mostly Cloudy 28 -2.2 17 -8.3 63 63 NNE 7 11 30.02 1017 10 16 0.00 0.00
8:56 pm 20:56 Mostly Clear 26 -3.3 17 -8.3 68 68 NNE 7 11 30.00 1016 10 16 0.01 0.13
9:56 pm 21:56 Mostly Clear 25 -3.9 16 -8.9 68 68 NE 7 11 29.99 1016 10 16 0.00 0.00
10:56 pm 22:56 Cloudy 25 -3.9 17 -8.3 71 71 ENE 7 11 29.99 1016 10 16 0.00 0.00
11:56 pm 23:56 Cloudy 25 -3.9 16 -8.9 68 68 NE 8 13 29.99 1016 10 16 0.00 0.00

Powered by AerisWeather